sat.trackr.live / text

‹ back to catalog

SUPERVIEW-1 03

NORAD 43099 · 2018-002A

PAYLOAD ACTIVE UNKNOWN

§ Identity

Operator
Country
PRC
Launch date
2018-01-09
Launch site
TAISC
Launch vehicle
Mass (kg)
RCS (m²)

External: N2YO · Heavens-Above · Gunter

§ Orbital elements

Epoch: 2026-05-25T05:04:44.743872Z

Period
93.60 min
Inclination
97.3129°
Eccentricity
0.0046175
Mean motion
15.38421760 rev/d
Perigee alt
419.2 km
Apogee alt
482.3 km
Semi-major
6,828.9 km
B*
3.6189e-4
RAAN
230.0989°
Arg perigee
263.0405°
Mean anomaly
96.5587°
Rev number
46,483

§ Raw data

SUPERVIEW-1 031 43099U 18002A   26145.21162898  .00014147  00000+0  36189-3 0  99972 43099  97.3129 230.0989 0046175 263.0405  96.5587 15.38421760464834

JSON: /api/v1/satellites/43099 · /tle

For live sub-satellite position, see the globe view (requires WebGL).

§ Visibility from observer

Set your observer location to see the next 7 days of passes ≥ 10°. The values pass through the URL so the page stays shareable.

No JS? Fill the form by hand. The geolocation button needs JavaScript.

§ Radio — SatNOGS DB

ModeDescriptionDownlinkUplink
FM Mode S STRF 2.263 GHz
FM S-band telemetry 2.275 GHz

2 transmitters · refreshed weekly from db.satnogs.org